[Iaude] MPEC N81: 2024 NP1 [a=1.64,e=0.47,i=10.8,H=22.1]
    mpec at cfa.harvard.edu 
    mpec at cfa.harvard.edu
       
    Sun Jul  7 07:28:04 EDT 2024
    
    
  
M.P.E.C. 2024-N81                                  Issued 2024 July 7, 11:26 UT
     The Minor Planet Electronic Circulars contain information on unusual
         minor planets, routine data on comets and natural satellites,
         and occasional editorial announcements.  They are published
    on behalf of Division F of the International Astronomical Union by the
          Minor Planet Center, Smithsonian Astrophysical Observatory,
                          Cambridge, MA 02138, U.S.A.
			  
             Prepared using the Tamkin Foundation Computer Network
                              MPC at CFA.HARVARD.EDU
            URL https://www.minorplanetcenter.net/    ISSN 1523-6714
                                    2024 NP1                                    
Observations:
     K24N01P* C2024 07 02.50635522 21 42.221+15 13 40.62         22.49wXEN081F51
     K24N01P  C2024 07 02.52021422 21 41.210+15 13 22.37         22.35wXEN081F51
     K24N01P  C2024 07 02.53218622 21 40.349+15 13 06.67         22.28wXEN081F51
     K24N01P  C2024 07 02.54418922 21 39.486+15 12 50.67         22.68wXEN081F51
     K24N01P 3C2024 07 03.60595222 20 29.326+14 49 04.05         21.94GVEN081T14
     K24N01P 3C2024 07 03.60692822 20 29.250+14 49 02.69         21.93GVEN081T14
     K24N01P 3C2024 07 03.60791322 20 29.176+14 49 01.37         21.93GVEN081T14
     K24N01P KC2024 07 06.31818422 17 17.37 +13 45 29.9          22.1 GVEN081H21
     K24N01P KC2024 07 06.32107322 17 17.13 +13 45 25.6          22.6 GVEN081H21
     K24N01P KC2024 07 06.32396322 17 16.89 +13 45 21.4          22.6 GVEN081H21
     K24N01P 3C2024 07 06.52813222 17 01.485+13 40 32.56         21.82GVEN081T14
     K24N01P 3C2024 07 06.52910922 17 01.403+13 40 31.15         21.84GVEN081T14
     K24N01P 3C2024 07 06.53008722 17 01.321+13 40 29.75         21.78GVEN081T14
     K24N01P KC2024 07 07.34139122 15 59.06 +13 20 32.1          22.5 GVEN081H21
     K24N01P KC2024 07 07.34427922 15 58.83 +13 20 28.0          22.3 GVEN081H21
     K24N01P KC2024 07 07.34793822 15 58.52 +13 20 23.0          22.7 GVEN081H21
     K24N01P !C2024 07 07.45218 22 15 50.29 +13 17 50.7          21.1 GVEN081673
     K24N01P !C2024 07 07.45821 22 15 49.71 +13 17 41.0                VEN081673
Observer details:
673 Table Mountain Observatory, Wrightwood.  Observer J. Pittichova.  1.0-m
    f/15 reflector + CCD.
F51 Pan-STARRS 1, Haleakala.  Observers J. Herman, T. Lowe, P. Minguez, A.
    Schultz, I. Smith.  Measurers K. Chambers, T. de Boer, J. Fairlamb, H.
    Gao, M. Huber, C.-C. Lin, E. Magnier, Y. Ramanjooloo, R. Wainscoat, R.
    Weryk.  1.8-m Ritchey-Chretien + CCD.
H21 Astronomical Research Observatory, Westfield.  Observer R. Holmes.
    Measurers T. Linder, R. Holmes, L. Horn.  1.3-m f/4.0 astrograph + CCD.
T14 Canada-France-Hawaii Telescope, Maunakea.  Observers R. Wainscoat, H.
    Januszewski, V. Khatu, H. Flewelling.  Measurers R. Weryk, R. Wainscoat.
    3.6-m f/4.1 reflector + CCD.
Orbital elements:
2024 NP1                                                 Earth MOID = 0.0060 AU
Epoch 2024 Mar. 31.0 TT = JDT 2460400.5                 MPC                     
M 351.84861              (2000.0)            P               Q                  
n   0.46862742     Peri.   49.96359     -0.86872862     +0.49076656             
a   1.6415379      Node   159.16028     -0.49203333     -0.83970898             
e   0.4717451      Incl.   10.81839     -0.05669031     -0.23245861             
P   2.10           H   22.11          G   0.15           U   9                  
Residuals in seconds of arc
240702 F51  0.1+  0.1+    240703 T14  0.0   0.1-    240706 T14  0.0   0.1+
240702 F51  0.1-  0.0     240706 H21  0.0   0.2+    240707 H21  0.2-  0.3-
240702 F51  0.1-  0.0     240706 H21  0.0   0.0     240707 H21  0.1+  0.2-
240702 F51  0.0   0.1-    240706 H21  0.1-  0.0     240707 H21  0.1+  0.2+
240703 T14  0.0   0.1-    240706 T14  0.0   0.1+    240707 673  0.7+  0.6+
240703 T14  0.0   0.1-    240706 T14  0.0   0.1+    240707 673  0.1-  0.2-
Ephemeris:
2024 NP1                 a,e,i = 1.64, 0.47, 11                  q = 0.8672
Date    TT    R. A. (2000) Decl.     Delta      r    Elong.  Phase     V
2024 06 07    22 34 04.9 +22 39 18   0.3711  1.0633    87.2    72.4    22.6
...
2024 06 22    22 30 09.0 +18 40 42   0.3917  1.1654   102.5    58.4    22.5
...
2024 06 30    22 24 12.2 +16 07 34   0.3983  1.2223   111.9    50.5    22.4
...
2024 07 06    22 17 40.7 +13 53 19   0.4032  1.2653   119.6    44.3    22.4
2024 07 07    22 16 25.2 +13 29 07   0.4041  1.2725   120.9    43.3    22.3
2024 07 08    22 15 07.1 +13 04 22   0.4050  1.2796   122.3    42.2    22.3
...
2024 07 14    22 06 24.6 +10 24 47   0.4121  1.3227   130.7    35.6    22.3
...
2024 07 22    21 52 58.3 +06 26 27   0.4273  1.3797   142.5    26.6    22.2
...
2024 08 06    21 26 16.9 -01 31 18   0.4830  1.4845   163.9    10.9    22.1
A. U. Tomatic                (C) Copyright 2024 MPC           M.P.E.C. 2024-N81
    
    
More information about the Iaude
mailing list